Lakeview AWS, OR

2:26 AM PDT on October 18, 2017 (GMT -0700)
Lake County

Weather History for KLKV - February, 2012

Change the Weather History Date:

Monday, February 27, 2012

  Actual Average Record
Temperature  
Mean Temperature 26 °F -  
Max Temperature 35 °F 47 °F 69 °F (1986)
Min Temperature 17 °F 26 °F -2 °F (1962)
Degree Days  
Heating Degree Days 39    
Moisture  
Dew Point 14 °F    
Average Humidity 59    
Maximum Humidity 79    
Minimum Humidity 38    
Precipitation  
Precipitation 0.00 in - - ()
Sea Level Pressure  
Sea Level Pressure 29.81 in    
Wind  
Wind Speed 10 mph (North)    
Max Wind Speed 17 mph    
Max Gust Speed 24 mph    
Visibility 10 miles    
Events      
Averages and records for this station are not official NWS values.
T = Trace of Precipitation, MM = Missing Value Source: NWS Daily Summary

Daily Weather History Graph

Daily Weather History Graph

Search for Another Location

Airport or City:

Trip Planner

Search our weather history database for the weather conditions in past years. The results will help you decide how hot, cold, wet, or windy it might be!

Date:

Astronomy

Feb. 27, 2012 Rise Set
Actual Time 6:40 AM PST 5:48 PM PST
Civil Twilight 6:12 AM PST 6:16 PM PST
Nautical Twilight 5:40 AM PST 6:49 PM PST
Astronomical Twilight 5:07 AM PST 7:21 PM PST
Moon 9:05 AM PST (2/27) 11:54 PM PST (2/27)
Length of Visible Light 12h 04m
Length of Day
11h 08m
Waxing Crescent, 30% of the Moon is Illuminated
Feb 27
Waxing Crescent
Feb 29
First Quarter
Mar 8
Full
Mar 14
Last Quarter
Mar 22
New

Hourly Weather History & Observations

Time (PST) Temp. Windchill Dew Point Humidity Pressure Visibility Wind Dir Wind Speed Gust Speed Precip Events Conditions
12:15 AM 19.4 °F 10.4 °F 12.2 °F 74% 29.83 in 10.0 mi North 6.9 mph - N/A   Clear
12:35 AM 19.4 °F 8.6 °F 12.2 °F 74% 29.83 in 10.0 mi NNW 9.2 mph - N/A   Mostly Cloudy
12:55 AM 17.6 °F 6.4 °F 12.2 °F 79% 29.83 in 10.0 mi NNW 9.2 mph - N/A   Mostly Cloudy
1:15 AM 17.6 °F 6.4 °F 12.2 °F 79% 29.82 in 10.0 mi NNW 9.2 mph - N/A   Partly Cloudy
1:35 AM 17.6 °F 7.3 °F 12.2 °F 79% 29.82 in 10.0 mi NNW 8.1 mph - N/A   Clear
1:55 AM 19.4 °F 8.6 °F 12.2 °F 74% 29.82 in 10.0 mi NNW 9.2 mph - N/A   Mostly Cloudy
2:15 AM 19.4 °F 8.6 °F 12.2 °F 74% 29.81 in 10.0 mi NNW 9.2 mph - N/A   Overcast
2:35 AM 21.2 °F 10.1 °F 14.0 °F 74% 29.81 in 10.0 mi NNW 10.4 mph - N/A   Overcast
2:55 AM 21.2 °F 10.1 °F 14.0 °F 74% 29.80 in 10.0 mi North 10.4 mph - N/A   Overcast
3:15 AM 23.0 °F 11.7 °F 15.8 °F 74% 29.80 in 10.0 mi North 11.5 mph - N/A   Overcast
3:35 AM 23.0 °F 11.7 °F 14.0 °F 68% 29.80 in 10.0 mi North 11.5 mph - N/A   Overcast
3:55 AM 23.0 °F 11.1 °F 14.0 °F 68% 29.79 in 10.0 mi North 12.7 mph 18.4 mph N/A   Overcast
4:15 AM 23.0 °F 11.1 °F 14.0 °F 68% 29.80 in 10.0 mi NNW 12.7 mph - N/A   Overcast
4:35 AM 23.0 °F 11.7 °F 14.0 °F 68% 29.80 in 10.0 mi NNW 11.5 mph - N/A   Overcast
4:55 AM 23.0 °F 11.7 °F 12.2 °F 63% 29.80 in 10.0 mi North 11.5 mph - N/A   Overcast
5:15 AM 21.2 °F 11.7 °F 12.2 °F 68% 29.81 in 10.0 mi North 8.1 mph - N/A   Scattered Clouds
5:35 AM 21.2 °F 10.1 °F 12.2 °F 68% 29.81 in 10.0 mi North 10.4 mph - N/A   Partly Cloudy
5:55 AM 21.2 °F 11.7 °F 12.2 °F 68% 29.81 in 10.0 mi NNW 8.1 mph - N/A   Mostly Cloudy
6:15 AM 21.2 °F 8.9 °F 12.2 °F 68% 29.82 in 10.0 mi North 12.7 mph - N/A   Overcast
6:35 AM 23.0 °F 11.7 °F 14.0 °F 68% 29.82 in 10.0 mi North 11.5 mph - N/A   Overcast
6:55 AM 21.2 °F 7.8 °F 14.0 °F 74% 29.82 in 10.0 mi North 15.0 mph - N/A   Overcast
7:15 AM 21.2 °F 8.3 °F 14.0 °F 74% 29.82 in 10.0 mi North 13.8 mph 17.3 mph N/A   Overcast
7:35 AM 23.0 °F 11.1 °F 14.0 °F 68% 29.82 in 10.0 mi North 12.7 mph - N/A   Overcast
7:55 AM 24.8 °F 11.9 °F 15.8 °F 69% 29.83 in 10.0 mi North 16.1 mph 20.7 mph N/A   Overcast
8:15 AM 24.8 °F 11.5 °F 14.0 °F 64% 29.83 in 10.0 mi North 17.3 mph 20.7 mph N/A   Overcast
8:35 AM 24.8 °F 12.4 °F 15.8 °F 69% 29.83 in 10.0 mi North 15.0 mph - N/A   Partly Cloudy
8:55 AM 26.6 °F 15.2 °F 15.8 °F 64% 29.83 in 10.0 mi North 13.8 mph 19.6 mph N/A   Partly Cloudy
9:15 AM 26.6 °F 13.8 °F 15.8 °F 64% 29.83 in 10.0 mi North 17.3 mph 21.9 mph N/A   Scattered Clouds
9:35 AM 28.4 °F 16.2 °F 15.8 °F 59% 29.83 in 10.0 mi North 17.3 mph 23.0 mph N/A   Partly Cloudy
9:55 AM 28.4 °F 17.0 °F 15.8 °F 59% 29.83 in 10.0 mi North 15.0 mph 24.2 mph N/A   Clear
10:15 AM 30.2 °F 20.2 °F 17.6 °F 60% 29.83 in 10.0 mi North 12.7 mph 23.0 mph N/A   Clear
10:55 AM 32.0 °F 21.6 °F 17.6 °F 55% 29.82 in 10.0 mi North 15.0 mph - N/A   Clear
11:15 AM 33.8 °F 27.0 °F 14.0 °F 44% 29.82 in 10.0 mi NE 8.1 mph 17.3 mph N/A   Partly Cloudy
11:35 AM 33.8 °F 26.4 °F 12.2 °F 41% 29.82 in 10.0 mi NNE 9.2 mph 18.4 mph N/A   Partly Cloudy
11:55 AM 33.8 °F 26.4 °F 12.2 °F 41% 29.82 in 10.0 mi NE 9.2 mph 16.1 mph N/A   Partly Cloudy
12:15 PM 32.0 °F 24.8 °F 12.2 °F 44% 29.81 in 10.0 mi NNE 8.1 mph - N/A   Partly Cloudy
12:35 PM 32.0 °F 24.2 °F 12.2 °F 44% 29.80 in 10.0 mi NE 9.2 mph - N/A   Scattered Clouds
12:55 PM 33.8 °F 27.0 °F 14.0 °F 44% 29.80 in 10.0 mi NNE 8.1 mph - N/A   Partly Cloudy
1:15 PM 35.6 °F 29.2 °F 14.0 °F 41% 29.79 in 10.0 mi NE 8.1 mph - N/A   Clear
1:35 PM 35.6 °F 29.2 °F 12.2 °F 38% 29.78 in 10.0 mi East 8.1 mph - N/A   Partly Cloudy
1:55 PM 35.6 °F 30.7 °F 12.2 °F 38% 29.78 in 10.0 mi ENE 5.8 mph - N/A   Scattered Clouds
2:15 PM 35.6 °F 29.9 °F 15.8 °F 44% 29.78 in 10.0 mi NE 6.9 mph - N/A   Overcast
2:35 PM 35.6 °F 28.6 °F 12.2 °F 38% 29.78 in 10.0 mi ENE 9.2 mph - N/A   Overcast
2:55 PM 35.6 °F 29.2 °F 12.2 °F 38% 29.79 in 10.0 mi North 8.1 mph - N/A   Overcast
3:15 PM 35.6 °F 27.5 °F 12.2 °F 38% 29.79 in 10.0 mi North 11.5 mph - N/A   Overcast
3:35 PM 35.6 °F 28.0 °F 12.2 °F 38% 29.79 in 10.0 mi North 10.4 mph 16.1 mph N/A   Overcast
3:55 PM 35.6 °F 27.5 °F 12.2 °F 38% 29.79 in 10.0 mi North 11.5 mph 17.3 mph N/A   Overcast
4:15 PM 33.8 °F 24.8 °F 12.2 °F 41% 29.79 in 10.0 mi North 12.7 mph - N/A   Overcast
4:35 PM 33.8 °F 25.3 °F 12.2 °F 41% 29.80 in 10.0 mi North 11.5 mph 18.4 mph N/A   Mostly Cloudy
4:55 PM 33.8 °F 25.3 °F 12.2 °F 41% 29.80 in 10.0 mi North 11.5 mph - N/A   Mostly Cloudy
5:15 PM 32.0 °F 24.8 °F 12.2 °F 44% 29.80 in 10.0 mi North 8.1 mph - N/A   Mostly Cloudy
5:35 PM 30.2 °F 22.6 °F 14.0 °F 51% 29.81 in 10.0 mi North 8.1 mph - N/A   Scattered Clouds
5:55 PM 28.4 °F 20.4 °F 14.0 °F 55% 29.81 in 10.0 mi NNW 8.1 mph - N/A   Clear
6:15 PM 26.6 °F 19.1 °F 15.8 °F 64% 29.82 in 10.0 mi NNW 6.9 mph - N/A   Clear
6:35 PM 24.8 °F 15.3 °F 17.6 °F 74% 29.82 in 10.0 mi NNW 9.2 mph - N/A   Partly Cloudy
6:55 PM 24.8 °F 15.3 °F 15.8 °F 69% 29.82 in 10.0 mi North 9.2 mph - N/A   Clear
7:15 PM 23.0 °F 14.7 °F 15.8 °F 74% 29.82 in 10.0 mi NNW 6.9 mph - N/A   Clear
7:35 PM 21.2 °F 11.7 °F 15.8 °F 80% 29.82 in 10.0 mi NNW 8.1 mph - N/A   Clear
7:55 PM 21.2 °F 11.7 °F 17.6 °F 86% 29.82 in 10.0 mi NNW 8.1 mph - N/A   Clear
8:15 PM 23.0 °F 13.1 °F 15.8 °F 74% 29.82 in 10.0 mi North 9.2 mph - N/A   Clear
8:35 PM 21.2 °F 12.6 °F 15.8 °F 80% 29.83 in 10.0 mi North 6.9 mph - N/A   Clear
8:55 PM 21.2 °F 11.7 °F 15.8 °F 80% 29.83 in 10.0 mi North 8.1 mph - N/A   Clear
9:15 PM 21.2 °F 11.7 °F 15.8 °F 80% 29.83 in 10.0 mi NNW 8.1 mph - N/A   Clear
9:35 PM 23.0 °F 11.7 °F 15.8 °F 74% 29.83 in 10.0 mi North 11.5 mph - N/A   Clear
9:55 PM 24.8 °F 14.0 °F 17.6 °F 74% 29.83 in 10.0 mi NNW 11.5 mph - N/A   Clear
10:15 PM 23.0 °F 11.1 °F 17.6 °F 80% 29.83 in 10.0 mi North 12.7 mph - N/A   Clear
10:35 PM 24.8 °F 12.9 °F 17.6 °F 74% 29.84 in 10.0 mi North 13.8 mph - N/A   Clear
10:55 PM 23.0 °F 11.1 °F 17.6 °F 80% 29.84 in 10.0 mi NNW 12.7 mph - N/A   Clear
11:15 PM 23.0 °F 10.6 °F 17.6 °F 80% 29.84 in 10.0 mi NNW 13.8 mph - N/A   Clear
11:35 PM 23.0 °F 10.1 °F 17.6 °F 80% 29.84 in 10.0 mi NNW 15.0 mph - N/A   Clear
11:55 PM 23.0 °F 13.1 °F 17.6 °F 80% 29.84 in 10.0 mi North 9.2 mph - N/A   Clear